Hourly Data Report for July 08, 2012

HALIFAX STANFIELD INT'L A
NOVA SCOTIA

44°52'48.060" N
63°30'00.050" W
145.40 m
8202250
71395
YHZ

Download Data

Hourly Data (July 2012)
Hourly Data Report for July 8, 2012
TIME
LST
Temp Definition
°C
Dew Point Definition
°C
Rel Hum Definition
%
Precip. Amount Definition
mm

Wind Dir Definition
10's deg

Wind Spd Definition
km/h
Visibility Definition
km
Stn Press Definition
kPa
Hmdx Definition


Wind Chill Definition


Weather Definition


00:00 18.0 17.9 99   20 11 2.4 98.68     Fog
01:00 17.6 17.6 100   22 7 1.2 98.64     Fog
02:00 17.1 17.1 100   22 7 2.0 98.62     Fog
03:00 18.6 18.6 100   26 9 2.0 98.60     Fog
04:00 18.1 18.1 100   28 13 16.1 98.57     Mainly Clear
05:00 17.9 17.7 99   30 15 19.3 98.62     Mainly Clear
06:00 17.9 16.9 94   32 13 24.1 98.64     Mainly Clear
07:00 19.2 16.7 85   33 17 24.1 98.66     Mainly Clear
08:00 20.2 16.3 78   31 17 24.1 98.67 25   Mainly Clear
09:00 21.7 15.3 67   30 11 24.1 98.65 26   Mainly Clear
10:00 22.9 14.4 59   30 15 24.1 98.63 27   Mainly Clear
11:00 24.5 13.2 49   28 30 24.1 98.61 27   Mainly Clear
12:00 24.6 12.7 47   31 26 24.1 98.62 27   Mainly Clear
13:00 23.5 12.2 49   30 26 24.1 98.61 26   Mostly Cloudy
14:00 24.9 12.9 47   30 26 24.1 98.59 28   Mostly Cloudy
15:00 23.6 13.0 51   31 30 24.1 98.60 26   Mostly Cloudy
16:00 23.5 12.4 50   31 30 24.1 98.63 26   Mostly Cloudy
17:00 22.6 12.8 54   30 28 24.1 98.66 25   Mostly Cloudy
18:00 22.7 12.4 52   29 30 24.1 98.68 25   Mainly Clear
19:00 21.8 11.5 52   30 24 24.1 98.73     Mainly Clear
20:00 20.1 11.8 59   30 19 24.1 98.78     Mainly Clear
21:00 18.9 11.9 64   28 15 24.1 98.84     Mostly Cloudy
22:00 17.5 11.5 68   26 15 24.1 98.88     Mainly Clear
23:00 16.5 11.4 72   27 19 24.1 98.90     Clear

Notes on Data Quality.

Legend

  • E = Estimated
  • M = Missing
  • NA = Not Available*
  • [empty] = Indicates an unobserved value
Date modified: